Miscellaneous Local Product
Issued by NWS Hastings, NE

Home | Current Version | Previous Version | Text Only | Print | Product List | Glossary Off
Versions: 1 2 3 4 5 6 7 8 9 10 11 12 13 14 15 16 17 18 19 20 21 22 23 24 25 26 27 28 29 30 31 32 33 34 35 36 37 38 39 40 41 42 43 44 45 46 47 48 49 50

976
AXUS43 KGID 261502
MISGRI

GID CWA HOURLY WEATHER ROUNDUP
NATIONAL WEATHER SERVICE HASTINGS NE
1000 AM CDT THU APR 26 2018

NOTE: "FAIR" INDICATES FEW OR NO CLOUDS BELOW 12,000 FEET WITH NO
SIGNIFICANT WEATHER AND/OR OBSTRUCTIONS TO VISIBILITY.

...SOUTH CENTRAL NEBRASKA...

CITY           SKY/WX    TMP DP  RH WIND       PRES   REMARKS
GRAND ISLAND   CLOUDY    52  40  63 W13       29.99R
KEARNEY        SUNNY     53  39  59 N15       30.00R
HASTINGS       CLOUDY    49  41  74 W9        29.99S
ORD            CLOUDY    52  40  63 N17G23    29.99R
YORK             N/A     54  41  62 SW13      29.97F
AURORA         PTSUNNY   53  42  67 W13       29.98S
LEXINGTON      PTSUNNY   57  39  50 N25       30.04R
HOLDREGE       MOSUNNY   50  41  70 NW9       30.00R
HEBRON         MOSUNNY   54  43  68 W6        30.00S

...NEBRASKA PANHANDLE...

CITY           SKY/WX    TMP DP  RH WIND       PRES   REMARKS
CHADRON        SUNNY     54  32  43 N16G23    30.24R
ALLIANCE       SUNNY     51  33  50 N24G35    30.20R
SCOTTSBLUFF    MOSUNNY   53  34  48 N21       30.24R
SIDNEY         MOSUNNY   51  32  48 N24G30    30.21R

...WESTERN AND NORTH CENTRAL NEBRASKA...

CITY           SKY/WX    TMP DP  RH WIND       PRES   REMARKS
VALENTINE      SUNNY     52  30  43 N23G35    30.13R
AINSWORTH      SUNNY     50  32  49 N31G37    30.11R
ONEILL         PTSUNNY   54  37  52 N29G38    30.00R
BROKEN BOW     CLOUDY    51  36  56 N30G39    30.01R
IMPERIAL       PTSUNNY   52  35  52 NW26G41   30.12R
NORTH PLATTE   CLOUDY    52  35  52 N26G38    30.07R
MCCOOK         CLOUDY    53  38  56 N25G40    30.01R

...EASTERN NEBRASKA...

CITY           SKY/WX    TMP DP  RH WIND       PRES   REMARKS
NORFOLK        SUNNY     54  38  54 NW15      29.92F
SO SIOUX CITY  PTSUNNY   57  39  51 W13       29.93F
TEKAMAH        MOSUNNY   56  39  53 SW14      29.95F
COLUMBUS       MOSUNNY   54  41  61 W10       29.96F
ALBION         SUNNY     55  40  57 NW13      29.96S
OMAHA EPPLEY   CLOUDY    56  38  50 SW6       29.97S
MILLARD        CLOUDY    54  39  56 W8        29.98S
LINCOLN        CLOUDY    54  41  61 SW9       30.00F
NEBRASKA CITY  CLOUDY    51  43  73 W10       29.99S
BEATRICE       CLOUDY    53  45  74 W8        30.00F
FALLS CITY     CLOUDY    52  40  63 CALM      29.99F

...NORTHERN KANSAS...

CITY           SKY/WX    TMP DP  RH WIND       PRES   REMARKS
GOODLAND       PTSUNNY   54  35  48 N38G54    30.04R
HILL CITY      CLOUDY    49  40  71 W7        30.00R
NORTON         SUNNY     48  39  71 NW12      30.00R
PHILLIPSBURG   SUNNY     46  39  76 CALM      30.01S
SMITH CENTER   MOSUNNY   46  39  76 SW3       30.02R
BELOIT         SUNNY     48  43  81 CALM      30.02R
HAYS           MOSUNNY   52  41  66 SW10      29.99R
RUSSELL        MOSUNNY   54  45  71 SW10      29.97F
CONCORDIA      MOSUNNY   54  41  61 W7        30.00R
SALINA         SUNNY     51  47  86 S8        30.01F
TOPEKA         SUNNY     51  46  83 NW6       30.03F



USA.gov is the U.S. government's official web portal to all federal, state and local government web resources and services.